Погода в Туркменабате

Погода в Туркменабате : погода сейчас, прогноз погоды и архив. Всё, что Вы хотите узнать о погоде в Туркменабате!

Хотите узнать прогноз погоды в Туркменабате? Тогда Вам сюда: Погода в Туркменабате

Поиск расширенной информации на нашем сайте:

Другие новости

Новости СМИ2

Главная страница сайта

Новости сайта

03.07.2017

Напоминаем, что на нашем специализированном сайте Метеоцентр.Азия вы можете получить высокодетализированные автоматические прогнозы погоды по пунктам России, СНГ и мира в авиационном формате (включающие направление и скорость ветра, видимость, явления погоды, количество и форму облачности, нижнюю и верхнюю границу облачности).


Погода в Туркменабате - сегодня

Время (UTC), дата Ветер
(°,м/с) 
Видим.   Явления Облачность Т
(°С)
Тd
(°С)
f(%) Тe
(°С)
Pmin
(гПа)
dP
(гПа)
Po
(мм)
O2
(г/м3)
Тmin Tmax R s Состояние
почвы
15 18.11.18 270 (З) 10 км    ясно 
+11.2 +1.1 50 +12  1024.2  0.3  751  290    +17       
18 18.11.18 140 (ЮВ) 4000 м    ясно 
+5.9 -0.4 64 +6  1024.3  -0.3  750  296    +17       
21 18.11.18 тихо ()   4000 м  дымка  ясно 
+4 -0.9 70 +4  1024.4  -0.1  750  298           
00 19.11.18 тихо ()   4000 м  дымка  ясно 
+2.4 -0.6 81 +2  1023.5  -1.1  750  299           
03 19.11.18 тихо ()   2000 м  дымка  9/0 верхняя 
[Ci fib]
+2.4 +0.3 86 +2  1023.7  0.2  750  299           
06 19.11.18 200 (Ю) 4000 м  дымка  9/0 верхняя 
[Ci fib]
+10.3 +5.3 71 +10  1023.4  0.4  750  290  +2.2         
09 19.11.18 250 (З) 10 км    9/0 средняя, верхняя 
[Ac trans|Ci fib]
+15.5 +6.7 56 +16  1021.9  -0.1  749  285           
12 19.11.18 290 (З) 10 км    9/5 1500 м кучево-дожд., средняя 
[Cb cap|Ac und]
+15.9 +6.2 52 +16  1021.6  -0.3  749  284           
15 19.11.18 340 (С) 10 км  слаб. ливневой дождь  10/10 1500 м кучево-дожд. 
[Cb cap]
+11.1 +6.7 74 +10  1033.1  1.2  750  289    +16.3  0.0     
18 19.11.18 340 (С) 10 км  {ливн. осадки}  10/10 1500 м кучево-дожд. 
[Cb cap]
+8.6 +5.3 80 +9  1024.6  1.3  751  292    +16.3  0.0     
21 19.11.18 290 (З) 10 км    4/4 1500 м 
[Sc]
+6.5 +4.7 88 +6  1025.9  1.2  752  295           
00 20.11.18 тихо ()   4000 м    9/9 660 м 
[Sc]
+4.9 +3.7 92 +5  1027.2  752  297           
03 20.11.18 тихо ()   4000 м    9/9 500 м 
[Sc]
+5.4 +4 91 +5  1028.2  1.6  754  297      0.0     
06 20.11.18 220 (ЮЗ) 10 км    10/10 420 м 
[Sc]
+7.5 +5 84 +7  1030.2  1.6  755  295  +4.5    0.0     
09 20.11.18 340 (С) 10 км    8/8 1200 м 
[Sc]
+10.8 +4.8 66 +11  1028.6  -1.3  754  291           
12 20.11.18 050 (СВ) 10 км    5/5 1000 м 
[Sc]
+11.3 +3.4 58 +12  1027.7  -0.9  753  291           
15 20.11.18 360 (С) 10 км    6/3 1500 м верхняя 
[Sc|Ci fib]
+7.8 +3 72 +7  1027.6  -0.4  753  294    +11.6       
18 20.11.18 110 (В) 4000 м    9/0 верхняя 
[Ci fib]
+4.3 +2.6 89 +3  1027.1  -0.8  752  298    +11.6       
21 20.11.18 110 (В) 2000 м  дымка  9/0 верхняя 
[Ci fib]
+2.5 +1.7 94 +2  1024.8  -2.4  751  299           
00 21.11.18 070 (В) 4000 м  дымка  9/0 верхняя 
[Ci fib]
+3.4 +2.4 93 +2  1020.9  -3.7  748  297           
03 21.11.18 070 (В) 4000 м  дымка  9/0 средняя, верхняя 
[Ac trans|Ci sp]
+3.4 +2.1 91 +3  1019.3  -1.6  747  297           
06 21.11.18 180 (Ю) 10 км    10/3 1500 м кучево-дожд., средняя 
[Cb cap|Ac As]
+8.1 +3.2 71 +7  1018  -0.8  746  291  +1.8         
09 21.11.18 110 (В) 4000 м  слаб. ливневой дождь  10/10 1500 м кучево-дожд. 
[Cb cap]
+8.7 +6.8 88 +8  1013.7  -4.1  743  289           
12 21.11.18 050 (СВ) 4000 м  слаб. дождь{ливн. осадки}  10/10 450 м 
[Ns]
+8.7 +7.7 93 +8  1011.5  -2.2  741  288           
15 21.11.18 140 (ЮВ) 4000 м    10/10 300 м 
[Ns]
+9 +7.6 91 +9  1011.9  0.4  742  288    +9.4     
Время (UTC), дата Ветер
(°,м/с) 
Видим.   Явления Облачность Т
(°С)
Тd
(°С)
f(%) Тe
(°С)
Pmin
(гПа)
dP
(гПа)
Po
(мм)
O2
(г/м3)
Тmin Tmax R s Состояние
почвы

Для получения пояснительной информации подведите курсор к названию столбца.

ПОГОДА в Туркменабате - архив

Всё, что Вы хотите узнать о погоде в Туркменабате - удобно и подробно!

Выберите нужную дату (начиная с 1 января 2015* года) и нажмите кнопку "Найти".
Будут отображены архивные сводки погоды по пункту Туркменабат, начиная с указанной даты.


Отображать данные в формате CSV (для использования в таблицах Excel)


Внимание! Наш архив погоды предназначен исключительно для личного некоммерческого использования в познавательных целях. Если Вам необходимы официальные справки о состоянии погоды (для производственных, юридических, коммерческих и т.п. целей), обращайтесь в органы Росгидромета.

*Примечание: данная дата относится к архиву по метеостанциям СССР (Россия, СНГ, Балтия).
Архив по метеостанциям Зарубежной Европы и Азии (кроме Китая) хранится 10 дней, по другим регионам земного шара (Китай, Африка, Америка, Австралия, Океания) - 1 день.

Туркменабат - район местоположения метеостанции


Название, широта, долгота, высота метеостанции:
Туркменабат (Чарджоу) 39.1°ш. 63.6°д. 190 м над ур. моря [Туркменистан]

Дополнительная информация

В oтличие oт бoльшинства пoгoдных сайтoв мы публикуем пoдрoбную метеoинфoрмацию в детальнoм прoфессиoнальнoм фoрмате.

Характеристики температуры и влажнoсти вoздуха измеряются на высoте 2 м в тени вдали oт зданий и деревьев.
Скoрoсть ветра измеряется на высoте 10 м (на урoвне рoста челoвека скoрoсть ветра ниже в 1.5-2 раза). Если метеoстанция нахoдится в гoрoде или в лесу, тo скoрoсть ветра занижена на 2-4 м/с пo сравнению с oткрытым местoм. Скoрoсть ветра над акватoриями крупных рек и oзёр, а также на вершинах хoлмoв на 2-5 м/с выше, чем в oбычных услoвиях.
Атмoсфернoе давление в разных тoчках местнoсти мoжет значительнo oтличаться oт давления на метеoстанции, в зависимoсти oт услoвий рельефа (при пoдъёме на 10 м давление пoнижается примернo на 1 мм рт.ст.).